Regional Weather Roundup
Issued by NWS Little Rock, AR

Home | Current Version | Previous Version | Graphics & Text | Print | Product List | Glossary On
Versions: 1 2 3 4 5 6 7 8 9 10 11 12 13 14 15 16 17 18 19 20 21 22 23 24 25 26 27 28 29 30 31 32 33 34 35 36 37 38 39 40 41 42 43 44 45 46 47 48 49 50
000
ASUS44 KLZK 011805
RWRLZK

WEATHER ROUNDUP FOR ARKANSAS
NATIONAL WEATHER SERVICE LITTLE ROCK AR
1200 PM CST SUN MAR 01 2015

NOTE: "FAIR" INDICATES FEW OR NO CLOUDS BELOW 12,000 FEET WITH NO
SIGNIFICANT WEATHER AND/OR OBSTRUCTIONS TO VISIBILITY.

ARZ001-003-010-029-011900-
NORTHWEST ARKANSAS

CITY           SKY/WX    TMP DP  RH WIND       PRES   REMARKS
FAYETTEVILLE   CLOUDY    32  32 100 CALM      30.36S FOG
6HR MIN TEMP:  30; 6HR MAX TEMP:  33;

FORT SMITH     CLOUDY    34  32  92 W3        30.39F FOG
6HR MIN TEMP:  32; 6HR MAX TEMP:  35; 6HR PCP: TRACE;

HARRISON       CLOUDY    32  31  96 NW6       30.34F FOG     WCI  26
6HR MIN TEMP:  30; 6HR MAX TEMP:  32;

BENTONVILLE    CLOUDY    32  28  86 CALM      30.37S
6HR MIN TEMP:  28; 6HR MAX TEMP:  32; 6HR PCP:  0.08;

ROGERS         CLOUDY    33  29  85 NW5       30.36F WCI  29
6HR MIN TEMP:  29; 6HR MAX TEMP:  33; 6HR PCP: TRACE;

SILOAM SPGS    CLOUDY    30  25  80 CALM      30.38S
6HR MIN TEMP:  28; 6HR MAX TEMP:  30; 6HR PCP:  0.01;

HIGHFILL       CLOUDY    33  29  85 N6        30.35F WCI  28
6HR MIN TEMP:  29; 6HR MAX TEMP:  33;

SPRINGDALE     CLOUDY    32  30  93 NW5       30.37F WCI  27
$$

ARZ004-005-016-011900-
NORTH CENTRAL ARKANSAS

CITY           SKY/WX    TMP DP  RH WIND       PRES   REMARKS
BATESVILLE     CLOUDY    36  34  93 NW3       30.38F
6HR MIN TEMP:  30; 6HR MAX TEMP:  36; 6HR PCP:  0.06;

FLIPPIN        CLOUDY    34  28  80 CALM      30.37S
6HR MIN TEMP:  30; 6HR MAX TEMP:  34; 6HR PCP:  0.32;

MTN HOME       CLOUDY    32  50 100 CALM      30.35F HAZE
6HR MIN TEMP:  30; 6HR MAX TEMP:  32;

$$

ARZ040-041-011900-
WEST CENTRAL ARKANSAS

CITY           SKY/WX    TMP DP  RH WIND       PRES   REMARKS
MENA           CLOUDY    37  36  93 E3        30.34F
MOUNT IDA      LGT RAIN  38  35  89 N3        30.32F FOG
6HR MIN TEMP:  33; 6HR MAX TEMP:  38; 6HR PCP:  0.04;

$$

ARZ009-017-025-026-028-011900-
NORTHEAST ARKANSAS

CITY           SKY/WX    TMP DP  RH WIND       PRES   REMARKS
CORNING        CLOUDY    36  32  87 CALM      30.38F
JONESBORO      CLOUDY    36  34  92 NW7       30.37S
6HR MIN TEMP:  31; 6HR MAX TEMP:  37; 6HR PCP:  0.03;

NEWPORT        CLOUDY    35  33  92 NW8       30.40S WCI  28
6HR MIN TEMP:  31; 6HR MAX TEMP:  35; 6HR PCP:  0.02;

WALNUT RIDGE   CLOUDY    36  30  80 N8        30.39S
6HR MIN TEMP:  30; 6HR MAX TEMP:  36; 6HR PCP:  0.01;

BLYTHEVILLE    CLOUDY    39  37  92 SW5       30.37S FOG
6HR MIN TEMP:  33; 6HR MAX TEMP:  40; 6HR PCP:  0.03;

$$

ARZ022-023-033-042-044-011900-
CENTRAL ARKANSAS

CITY           SKY/WX    TMP DP  RH WIND       PRES   REMARKS
LITTLE ROCK    LGT RAIN  38  34  85 CALM      30.38F FOG
6HR MIN TEMP:  33; 6HR MAX TEMP:  38; 6HR PCP:  0.07;

N LITTLE ROCK  CLOUDY    37  37 100 CALM      30.38F
6HR MIN TEMP:  32; 6HR MAX TEMP:  38;

JACKSONVILLE   LGT RAIN  38  36  92 CALM      30.37S FOG
6HR MIN TEMP:  33; 6HR MAX TEMP:  38; 6HR PCP:  0.02;

SEARCY         CLOUDY    38  35  89 N5        30.40R FOG
6HR MIN TEMP:  32; 6HR MAX TEMP:  39; 6HR PCP: TRACE;

HOT SPRINGS    LGT RAIN  39  36  89 CALM      30.36S FOG
6HR MIN TEMP:  34; 6HR MAX TEMP:  39; 6HR PCP: TRACE;

RUSSELLVILLE   CLOUDY    38  33  82 CALM      30.37F HAZE
6HR MIN TEMP:  33; 6HR MAX TEMP:  39;

CLINTON        CLOUDY    37  36  93 N5        30.39S FOG
$$

ARZ036-011900-
EAST ARKANSAS

CITY           SKY/WX    TMP DP  RH WIND       PRES   REMARKS
WEST MEMPHIS   CLOUDY    40  39  97 CALM      30.35F FOG
6HR MIN TEMP:  33; 6HR MAX TEMP:  40; 6HR PCP:  0.14;

$$

ARZ050-053-066-070-073-011900-
SOUTHWEST ARKANSAS

CITY           SKY/WX    TMP DP  RH WIND       PRES   REMARKS
ARKADELPHIA    LGT RAIN  37  37 100 NE3       30.38F FOG
6HR MIN TEMP:  34; 6HR MAX TEMP:  38; 6HR PCP:  0.11;

CAMDEN         LGT RAIN  37  34  87 MISG      30.37S VSB 1
TEXARKANA      CLOUDY    38  37  97 NE7       30.34F FOG
6HR MIN TEMP:  34; 6HR MAX TEMP:  38; 6HR PCP:  0.20;

EL DORADO      CLOUDY    36  35  96 NE6       30.35F FOG
6HR MIN TEMP:  33; 6HR MAX TEMP:  36;

DE QUEEN       CLOUDY    42  39  89 CALM      30.34F FOG
6HR MIN TEMP:  37; 6HR MAX TEMP:  42; 6HR PCP: TRACE;

$$

ARZ056-057-069-011900-
SOUTHEAST ARKANSAS

CITY           SKY/WX    TMP DP  RH WIND       PRES   REMARKS
PINE BLUFF     LGT RAIN  35  33  92 NE3       30.36F FOG
6HR MIN TEMP:  31; 6HR MAX TEMP:  35; 6HR PCP:  0.43;

STUTTGART      CLOUDY    37  34  87 N3        30.38F
6HR MIN TEMP:  32; 6HR MAX TEMP:  37; 6HR PCP:  0.06;

MONTICELLO     CLOUDY    37  35  92 VRB5      30.36S FOG
6HR MIN TEMP:  34; 6HR MAX TEMP:  37;


$$




USA.gov is the U.S. government's official web portal to all federal, state and local government web resources and services.